Theta_e
352 350 351 343 344 344 343 346 345 351 350 351 349 350 351 353 352 348 345 346 345 344 339 336 335 334 333 333 333 333 333 333 333 334 334 334 334 335 335 336 338 341 342
354 352 353 349 351 348 347 346 349 353 348 350 352 352 349 350 350 349 347 341 343 341 337 333 333 331 331 331 331 331 331 331 332 332 331 332 332 333 332 333 334 335 338
356 354 351 346 347 347 351 352 353 352 352 353 349 346 347 348 348 348 345 342 336 339 336 333 331 332 329 330 331 332 331 331 331 332 332 332 332 331 331 331 331 332 332
356 356 351 349 349 350 352 350 351 346 347 348 343 343 345 348 347 348 343 339 336 332 334 338 336 336 328 328 330 331 331 331 331 332 331 330 329 329 330 331 331 331 331
354 354 351 350 351 352 354 356 352 351 347 341 339 341 343 345 347 343 342 338 334 331 329 333 336 331 326 327 330 330 332 331 329 330 329 328 327 327 328 328 330 331 331
354 353 350 359 356 353 354 353 350 346 342 339 338 337 341 345 346 343 341 337 333 327 325 329 326 326 334 335 329 332 332 330 328 329 327 326 327 326 327 327 327 328 329
353 352 356 356 355 352 352 351 349 344 337 338 337 336 337 340 342 342 341 331 327 324 326 324 326 325 327 334 331 331 329 330 328 327 326 326 326 325 327 326 326 325 325
356 353 357 351 348 346 344 341 343 338 336 334 329 330 325 329 324 330 331 326 324 325 324 325 328 326 327 326 328 330 328 328 328 328 326 325 325 325 325 325 325 325 325
353 356 353 348 347 344 336 336 336 334 330 331 325 325 318 316 316 323 321 320 324 324 324 325 326 327 326 326 327 326 325 326 327 327 324 324 325 325 324 324 324 324 324
352 348 347 343 341 339 338 336 335 333 330 327 329 327 325 322 314 311 319 319 321 321 325 324 325 325 324 323 328 325 327 324 325 324 323 323 324 324 324 323 323 324 324
344 343 343 341 336 335 334 332 328 331 329 327 322 322 322 321 324 317 309 313 319 320 323 325 324 326 325 326 322 325 326 326 322 321 321 321 321 322 322 322 322 322 322
340 338 339 339 339 336 335 331 330 330 328 327 325 323 319 315 313 312 311 313 313 316 320 325 325 322 322 322 326 327 326 326 322 321 320 319 320 320 320 320 320 320 321
333 333 337 337 334 333 332 331 329 327 326 325 323 321 322 320 319 319 315 312 311 315 319 323 323 324 324 322 323 325 327 325 322 320 320 319 318 318 318 319 318 318 318
333 338 334 332 330 329 328 331 327 325 326 324 323 323 322 322 321 319 316 312 309 311 314 315 321 323 323 322 326 328 321 324 321 321 319 318 318 318 317 317 316 316 315
334 332 330 328 328 328 329 329 326 324 324 323 324 324 322 322 322 321 319 317 314 308 309 313 315 320 322 320 324 320 321 322 322 322 317 316 317 318 317 317 316 314 312
332 329 328 327 326 327 327 326 324 325 324 324 322 321 320 321 321 321 320 319 317 314 309 314 315 317 320 321 324 322 320 322 322 318 317 316 316 316 316 315 316 314 311
329 327 326 325 324 324 326 324 324 324 323 322 322 320 318 320 319 319 318 318 316 316 311 313 316 317 317 319 319 318 316 314 313 317 317 318 315 315 315 314 315 315 310
327 325 324 323 323 323 325 324 322 323 322 321 321 319 318 318 317 317 316 316 314 315 312 309 311 312 313 315 313 311 314 311 311 316 316 315 314 314 314 313 313 313 309
325 323 322 321 321 322 322 323 322 322 321 320 321 319 317 315 312 312 312 312 311 311 310 308 307 309 309 310 306 308 306 307 310 315 312 313 312 313 313 312 312 310 307
322 321 321 320 320 318 317 321 322 321 321 321 320 316 313 312 309 308 307 307 307 307 307 305 305 305 305 305 303 301 300 304 305 307 310 311 312 312 311 312 311 308 306
320 320 318 316 313 309 306 312 321 320 320 319 317 314 310 308 307 306 303 301 303 304 305 303 302 301 300 298 298 300 299 301 302 304 304 304 305 306 306 309 307 306 304
319 318 316 313 310 304 299 303 309 319 318 316 314 312 305 301 299 300 301 302 304 304 303 302 299 296 296 298 299 300 299 297 295 302 301 300 303 303 304 303 305 304 303
317 315 312 309 305 302 298 299 303 316 313 312 310 308 306 300 294 294 296 303 305 306 305 302 298 297 297 299 300 299 298 298 297 300 301 298 303 299 302 303 305 303 303
315 313 311 309 304 299 297 297 299 314 311 310 308 305 302 297 293 293 296 299 299 301 299 299 300 300 301 302 300 299 299 300 299 301 303 296 300 298 300 300 304 301 301
313 312 310 307 302 298 296 296 304 315 313 310 298 297 296 294 292 293 296 296 296 297 300 301 301 299 297 297 297 298 299 297 295 297 301 297 298 297 297 298 301 301 301
310 309 307 305 302 299 295 295 303 308 311 303 297 295 294 293 292 292 292 295 293 294 294 296 301 303 304 305 302 303 300 296 296 294 299 296 296 296 292 298 298 299 299
Wind_Speed
4 4 5 6 7 8 6 7 3 4 4 6 4 3 6 6 7 4 4 11 12 13 12 11 15 14 15 14 15 16 17 18 17 17 17 19 18 19 20 20 19 18 17
4 3 1 2 2 2 4 5 4 3 3 2 7 7 5 6 6 7 4 5 10 11 10 11 13 12 11 12 14 14 16 17 18 18 18 18 18 18 19 20 20 19 18
5 3 3 3 4 2 3 3 2 2 3 4 6 5 5 5 4 4 3 4 5 8 6 8 8 9 6 10 13 15 16 18 19 19 18 19 20 19 20 19 19 19 18
6 3 3 5 4 3 3 3 0 5 5 1 4 4 2 3 6 4 5 3 3 3 3 6 5 11 6 7 9 13 15 18 19 19 20 19 20 20 20 21 19 19 18
8 4 4 4 2 2 1 3 5 4 3 5 4 2 2 4 5 3 5 3 7 2 3 6 11 9 3 4 8 11 15 18 19 20 19 20 20 20 20 20 21 21 19
7 4 4 4 4 6 3 4 5 6 5 5 4 4 4 5 2 2 2 5 5 5 4 5 4 5 8 11 7 10 16 19 18 17 18 20 21 22 21 21 21 21 22
7 5 1 7 5 5 5 4 5 5 6 6 4 3 6 3 3 2 4 5 5 4 6 5 2 2 2 9 10 11 12 18 18 19 19 20 20 21 20 21 21 21 21
8 5 5 6 6 6 8 7 7 5 5 4 3 3 2 2 5 3 4 3 4 3 4 4 5 5 4 4 3 10 14 16 17 19 18 18 19 20 19 19 20 20 21
6 8 8 7 5 5 6 6 5 4 2 2 4 1 3 3 3 3 7 6 7 2 2 1 5 4 4 4 4 8 9 12 15 17 16 17 18 19 21 20 20 21 21
10 12 10 9 6 5 5 5 4 3 2 2 2 3 2 2 3 4 5 5 6 4 1 0 2 1 1 2 7 5 10 9 10 12 13 13 16 18 20 21 21 20 21
10 10 9 8 8 6 5 5 3 3 4 3 3 3 3 3 0 1 4 5 4 4 4 2 2 3 2 3 3 5 8 6 6 7 10 11 14 17 19 20 21 22 21
6 10 8 7 8 7 5 5 6 6 6 5 4 4 3 2 3 3 3 4 6 5 5 2 1 2 2 2 5 4 9 11 9 7 8 8 12 13 15 18 20 20 21
8 8 9 7 7 6 7 5 6 6 5 4 6 4 3 3 1 2 4 4 5 6 5 3 4 3 3 3 3 7 11 13 7 11 9 5 9 11 12 14 16 17 18
8 9 9 8 8 8 6 4 5 6 5 4 5 4 4 3 4 3 2 3 5 5 6 6 5 4 3 3 3 7 5 8 11 16 7 4 9 10 10 11 13 13 13
9 9 10 8 8 7 5 7 5 5 4 3 3 5 4 4 3 2 2 2 3 5 6 7 6 8 5 5 6 4 4 11 16 11 5 6 10 10 8 8 11 9 8
13 11 10 9 8 6 5 6 5 5 4 5 4 5 5 4 5 5 4 4 4 3 4 6 8 11 9 9 7 6 6 11 9 4 2 10 13 10 8 9 10 9 6
12 12 10 9 8 7 6 6 5 5 6 5 5 4 6 7 6 6 6 5 5 6 7 7 8 7 10 7 6 6 7 7 9 12 8 10 12 11 9 10 12 11 5
11 10 9 9 9 7 5 5 6 5 8 6 5 7 7 6 7 8 6 6 6 7 7 11 8 10 7 9 10 10 9 11 10 13 13 10 14 12 9 13 12 3 2
11 10 10 9 8 7 6 6 5 7 6 6 6 6 6 8 9 8 8 7 7 8 8 8 9 8 7 8 12 10 11 10 10 21 18 17 18 14 15 16 5 7 8
11 9 9 9 9 12 12 8 8 5 7 7 9 10 9 9 8 8 8 9 8 7 8 8 8 8 8 10 9 10 12 9 10 10 13 13 15 15 15 14 11 9 8
11 11 11 12 13 11 8 8 8 8 9 9 9 8 10 14 18 14 7 9 9 7 7 7 7 8 9 10 10 10 10 9 10 8 11 9 9 8 9 8 6 9 6
12 13 12 12 11 9 11 13 9 7 10 9 9 9 10 16 14 16 18 20 15 6 7 6 6 8 9 8 7 8 8 9 10 7 10 10 9 8 9 10 5 8 9
14 13 13 11 11 10 13 12 13 10 10 9 10 8 9 9 12 11 15 16 13 14 5 5 7 7 8 9 6 8 9 8 8 11 10 8 6 11 10 11 6 7 13
13 11 12 12 12 10 14 13 10 7 7 8 8 9 9 10 8 10 11 11 11 9 9 7 7 10 9 8 7 5 8 9 8 8 7 6 10 10 10 10 7 24 20
12 11 11 13 12 11 13 12 7 4 4 8 11 10 8 6 9 12 10 9 9 8 11 15 16 19 12 14 10 4 6 9 10 9 4 8 8 9 9 8 8 21 13
11 11 13 13 13 10 15 19 14 6 3 9 7 6 11 6 7 9 6 8 9 10 12 14 10 7 7 8 11 1 8 9 7 6 7 7 8 9 6 2 10 9 8
Wind_Direction
172 197 196 180 193 173 202 194 227 175 203 236 219 82 41 10 353 109 111 105 101 91 72 49 50 35 24 15 14 7 3 360 0 359 356 353 351 349 346 341 341 340 333
178 199 52 341 287 238 174 209 203 143 248 36 58 58 7 21 359 35 76 102 106 99 85 61 44 35 25 12 13 9 5 0 359 357 352 349 344 343 340 336 335 336 341
170 148 165 223 264 256 294 44 13 209 355 80 56 62 40 358 351 15 61 120 130 105 116 80 45 24 36 16 15 14 8 9 2 354 356 358 351 344 339 336 333 328 329
156 179 208 194 245 222 146 252 352 64 78 89 84 41 3 301 289 211 108 76 77 46 164 47 44 22 74 18 19 17 16 13 1 357 359 355 346 344 340 337 333 329 327
155 182 240 180 207 223 28 79 64 86 127 48 40 204 240 250 271 97 115 118 81 78 34 344 28 93 120 320 27 27 20 11 2 355 354 354 350 347 344 338 339 342 335
154 202 246 97 87 56 69 83 83 56 56 41 336 326 281 242 123 52 113 62 64 52 13 41 32 19 345 1 31 40 27 11 0 0 358 354 351 350 348 345 346 342 341
146 180 0 91 85 87 68 74 81 58 55 13 295 293 263 247 99 332 68 61 60 23 55 12 36 27 321 352 86 53 26 17 3 358 353 350 345 348 349 349 347 346 343
132 142 103 100 97 102 71 50 36 72 55 20 331 275 338 340 34 19 79 37 50 44 51 355 27 9 22 332 95 56 28 10 1 358 352 346 346 346 352 349 348 347 347
131 119 105 102 79 84 79 72 60 58 61 43 75 245 327 14 320 17 36 7 352 358 105 20 87 26 9 330 29 40 25 6 355 354 351 345 341 346 345 346 346 344 348
76 84 87 91 114 107 108 74 77 113 172 349 184 133 41 68 11 337 5 343 326 23 309 322 101 177 45 325 8 85 25 352 332 347 342 344 345 347 346 343 344 344 347
93 95 88 101 97 93 88 117 152 187 81 39 19 359 30 341 193 293 315 339 327 317 296 142 285 21 353 63 345 26 329 296 277 309 327 345 348 348 350 349 347 345 344
98 99 116 121 110 126 128 84 65 57 62 44 13 36 30 21 21 331 324 323 353 309 298 132 40 118 29 27 0 359 322 320 247 297 298 332 346 342 347 348 345 346 346
112 122 117 107 98 97 88 88 94 85 63 66 40 356 342 49 19 319 19 333 329 318 353 28 5 61 52 32 41 344 323 338 289 279 273 308 328 324 339 342 341 346 347
124 120 94 93 96 95 111 122 67 72 43 80 60 27 314 46 49 41 340 346 341 341 344 329 331 30 33 348 321 340 321 341 264 296 255 350 307 303 326 329 329 337 347
116 103 108 112 104 110 107 89 75 87 88 73 96 28 3 34 35 343 293 334 334 328 333 324 326 341 351 327 306 323 349 314 308 319 77 301 287 283 292 320 306 316 334
113 114 111 114 115 102 91 118 112 86 73 65 73 49 23 15 342 342 352 20 339 326 314 328 338 322 333 324 334 2 329 319 339 97 241 276 270 275 281 312 294 276 267
118 122 127 117 106 99 97 97 108 115 102 101 96 72 46 38 7 6 355 11 350 353 329 322 312 324 316 342 344 357 340 355 348 316 253 302 360 347 311 298 293 265 277
118 115 112 108 98 102 110 97 69 66 79 79 100 63 46 31 20 16 355 358 356 344 345 324 331 320 336 335 1 352 354 354 336 333 358 35 3 339 311 292 297 224 300
116 113 104 102 108 103 89 69 74 65 68 73 76 76 61 41 31 12 347 9 0 350 328 332 322 329 342 11 352 348 356 339 330 350 358 332 341 340 346 340 38 72 27
104 101 94 94 81 57 41 24 74 63 69 71 68 62 47 55 40 13 0 4 347 336 333 332 329 333 342 1 343 351 340 338 348 334 331 343 351 356 339 60 61 35 357
102 95 86 74 64 58 40 19 39 48 61 62 70 81 54 53 39 19 359 338 324 320 324 325 328 336 339 348 350 339 331 339 340 338 346 348 342 344 350 48 25 12 344
95 86 82 80 76 62 27 34 15 66 63 49 47 73 75 44 21 4 353 330 314 305 308 343 335 334 332 322 328 328 332 344 345 340 338 334 333 345 349 336 5 4 338
90 87 86 81 68 55 35 30 16 66 68 59 56 41 43 48 22 357 342 322 356 353 31 306 310 310 310 306 315 317 325 337 331 330 334 330 341 336 335 326 319 343 344
96 93 86 79 71 48 32 24 2 89 95 84 65 57 48 42 10 357 328 3 348 345 354 325 301 289 287 291 295 303 311 314 326 333 350 320 332 330 330 320 335 0 345
95 86 86 77 69 48 29 29 7 117 129 105 73 62 55 44 356 356 345 356 343 338 331 317 310 298 290 283 288 345 336 339 343 337 17 344 333 323 319 317 355 334 339
103 91 89 78 68 55 35 30 31 24 13 108 106 113 80 55 349 336 338 330 337 332 322 312 311 346 356 42 66 10 359 353 346 329 9 340 342 343 319 298 332 329 353